Location: Kelowna
(49.8880°N, 119.4960°W)
Time: 02:44:42
(UTC-07:00)

CAS-4A - Pass Details

Date: 22 April 2024
Orbit: 475 x 491 km, 43.0° (Epoch: 25 May)

Event Time Altitude Azimuth Distance (km) Brightness Sun altitude
Exits shadow 02:53:40 11° 119° (ESE) 1,609 ? -22.6°
Drops below altitude 10° 02:53:52 10° 116° (ESE) 1,660 ? -22.6°
Enters shadow 03:54:05 -64° 267° (W) 11,995 ? -16.5°
Maximum altitude 04:29:41 28° 176° (S) 926 ? -12.2°
